Theta_e
303 302 301 301 300 300 300 300 300 299 299 300 299 299 299 299 299 299 299 299 300 300 300 300 300 300 299 299 299 300 299 299 302 307 313 313 306 301 301 300 301 300 301 303 306 310 311 310 311 314 319 321 322 323 323 323 324 324 325 326 327 327 328 328 328 326 326 324 325 328 328 328 329 328 327 326 326 325 323 323 323 324 323 323 324 324 325 326
302 301 301 301 300 300 300 300 299 299 299 299 299 299 299 299 299 299 299 299 299 300 300 300 300 300 299 299 299 299 300 301 306 313 313 308 303 301 301 300 301 300 302 307 310 311 311 311 311 314 319 320 321 323 322 323 324 324 325 325 326 324 325 326 322 321 322 322 322 325 327 328 328 328 328 326 326 326 325 325 323 323 323 323 324 323 325 327
301 300 300 301 300 299 299 299 299 299 298 299 299 298 299 299 299 299 299 299 299 300 300 300 300 300 300 299 299 299 300 303 309 314 311 303 303 302 300 300 301 300 302 308 310 311 312 311 311 313 318 319 320 321 321 323 323 324 325 325 324 322 322 322 319 317 318 319 320 321 323 326 326 326 327 326 326 326 327 328 326 325 324 323 323 324 328 330
299 299 300 300 299 299 299 299 298 299 298 298 298 298 299 299 299 299 299 299 299 299 299 300 300 300 300 299 299 299 300 305 311 314 309 303 303 302 300 300 300 300 303 306 306 308 311 310 310 312 315 316 317 319 320 322 323 323 324 324 322 322 322 319 317 316 316 317 318 318 320 323 323 323 325 326 326 326 325 325 326 325 323 321 321 322 326 329
300 299 299 299 299 299 299 299 298 298 298 298 298 298 298 298 299 299 299 299 299 299 299 299 300 300 300 299 299 299 301 309 314 313 308 303 304 302 301 300 299 300 301 304 305 307 309 309 309 311 313 313 316 318 319 321 321 321 322 323 321 321 321 318 316 316 316 317 317 317 318 319 319 320 322 324 325 325 323 323 323 323 321 319 319 319 320 323
299 298 299 299 299 298 298 299 298 298 298 298 297 297 298 298 298 299 299 299 299 299 299 299 299 299 299 299 299 298 301 311 313 309 307 304 304 303 301 300 300 300 301 304 307 308 308 309 309 310 311 312 315 316 316 319 320 319 320 321 320 319 319 318 315 315 316 316 317 317 316 315 316 318 320 321 323 324 324 323 322 323 322 320 319 318 319 320
298 298 299 299 299 298 298 298 298 298 297 297 297 297 297 298 298 299 298 298 298 299 298 299 299 299 299 298 299 299 301 309 311 307 307 305 304 303 301 300 299 299 303 307 308 307 308 310 309 310 310 311 314 314 315 318 318 318 318 317 318 317 317 317 314 313 315 315 316 316 314 313 314 316 317 318 320 321 322 323 323 323 323 322 321 320 320 321
299 298 298 299 299 298 298 298 298 297 297 297 296 297 297 297 298 298 298 298 298 298 298 299 298 298 299 298 299 303 306 309 309 306 304 303 303 302 301 301 300 301 305 307 308 308 309 310 309 310 311 311 312 312 314 316 316 317 316 315 315 313 313 313 312 311 312 312 313 313 313 313 313 315 316 316 317 319 320 321 321 322 322 322 321 321 321 321
299 298 298 299 299 298 298 298 298 297 297 297 296 296 297 297 298 298 298 297 297 297 298 298 298 298 298 298 300 305 308 309 309 305 302 302 302 302 302 302 301 302 305 306 307 308 309 310 309 310 311 311 310 311 312 313 314 315 314 312 312 311 310 310 309 309 309 309 309 309 310 311 311 313 313 312 312 313 315 317 319 320 319 319 319 319 319 320
300 299 299 299 298 298 298 298 298 297 297 297 296 296 296 297 298 298 298 297 297 297 297 297 298 298 297 299 303 306 307 308 306 304 302 302 303 302 301 302 301 304 306 305 306 308 309 309 310 309 310 309 309 310 310 310 311 311 311 310 309 309 308 308 308 308 308 308 307 307 308 308 308 310 311 310 309 310 312 314 314 316 316 316 318 318 318 318
300 299 298 298 298 298 298 298 297 297 297 297 297 296 297 297 297 297 297 297 297 297 297 297 297 298 297 299 304 307 305 306 304 303 303 303 303 302 301 301 301 305 307 305 306 307 308 310 309 308 308 308 308 309 309 309 309 308 309 308 307 307 308 308 308 308 308 308 307 307 308 308 307 309 309 308 310 312 312 313 314 314 315 315 317 318 319 318
300 299 299 298 298 298 298 297 297 297 297 297 297 296 297 297 297 297 297 297 297 297 297 297 297 298 298 299 304 307 305 305 304 303 303 302 301 301 301 301 301 305 307 307 307 306 307 308 307 308 309 309 309 309 309 309 309 308 308 308 307 307 307 307 308 308 308 308 308 308 309 309 308 308 308 307 308 309 309 311 313 313 313 314 314 314 316 316
300 299 298 298 298 298 297 297 297 297 297 297 297 296 297 297 297 297 297 297 297 297 297 297 298 297 300 304 306 306 304 303 303 302 301 301 302 301 300 300 300 303 307 309 307 303 303 304 306 310 310 310 311 310 310 309 308 308 308 307 307 307 307 307 309 309 308 309 307 308 309 309 310 309 308 308 308 308 308 308 308 309 309 309 310 310 312 314
300 299 298 297 298 297 297 297 297 297 297 297 297 296 297 297 297 297 297 297 296 297 297 297 298 298 303 308 306 303 302 302 302 302 301 301 303 302 300 300 299 301 305 308 305 301 301 302 306 308 308 309 311 309 308 308 308 307 307 308 308 307 307 308 309 309 310 310 307 308 308 307 311 310 309 309 307 308 309 308 308 308 308 308 309 310 311 312
300 299 298 298 297 297 297 296 296 296 296 297 297 296 297 297 297 297 297 297 297 297 297 298 299 301 306 307 303 301 301 302 302 302 301 303 305 304 302 300 299 299 301 303 302 300 301 302 305 306 306 308 308 306 307 308 308 307 307 309 310 308 308 308 308 308 310 311 308 309 309 307 310 311 309 308 307 308 309 308 308 308 308 308 309 310 310 312
299 299 298 296 297 297 296 296 296 296 296 296 296 296 297 297 297 297 297 297 297 298 299 301 300 300 307 308 303 301 302 303 303 302 301 303 305 304 302 301 300 299 299 299 299 299 300 303 306 308 307 306 306 306 307 307 309 309 307 308 310 309 308 308 307 307 310 311 310 310 310 307 309 310 308 306 306 308 309 307 307 306 306 306 306 308 309 310
298 298 296 295 296 296 296 295 295 295 296 296 296 297 297 297 297 298 298 297 298 299 300 302 301 301 305 305 303 304 304 304 303 302 301 302 303 304 303 303 302 300 299 298 299 300 301 303 305 306 306 306 306 307 308 307 308 309 308 308 308 308 307 307 306 307 309 310 310 310 310 307 307 309 307 306 307 308 309 307 306 306 305 305 305 306 308 309
297 297 296 295 295 295 295 295 295 295 296 296 296 297 297 298 298 298 298 297 299 302 302 301 302 305 306 303 304 306 305 303 302 302 302 301 302 304 304 304 302 301 301 300 300 302 303 304 304 304 305 306 306 308 307 307 306 307 307 307 306 305 304 306 307 307 307 307 307 307 307 306 307 307 307 307 308 309 308 307 307 307 306 305 305 305 306 307
297 296 295 295 295 294 294 294 294 294 295 296 296 297 297 298 299 300 299 297 301 305 304 302 301 304 305 302 303 304 304 303 302 303 303 301 300 302 303 304 303 303 304 304 303 304 304 304 305 304 306 306 306 307 307 306 306 306 305 304 304 303 303 306 307 306 305 304 304 304 303 304 304 305 305 305 306 307 307 306 306 307 307 306 305 305 305 305
296 295 295 294 294 294 294 293 294 294 295 295 296 296 298 299 301 303 300 297 299 301 301 300 298 299 301 301 300 301 302 302 302 303 303 301 301 303 303 304 304 303 304 306 305 305 305 306 306 305 306 306 306 305 305 306 306 305 304 303 303 303 303 305 307 306 305 303 303 303 303 303 303 304 304 303 304 305 304 304 304 305 306 306 305 305 304 304
295 295 294 294 294 294 293 293 293 294 294 294 295 295 296 296 299 300 298 297 298 299 299 298 297 297 299 300 300 299 300 302 303 303 302 300 302 304 304 304 305 304 304 305 306 305 305 306 307 306 305 304 303 303 304 306 305 304 304 303 303 303 304 305 306 306 306 305 304 303 304 303 303 303 304 303 304 304 303 303 303 304 305 305 305 305 304 304
294 294 294 294 294 293 293 292 293 294 293 293 294 293 292 292 295 295 295 297 298 298 298 297 298 299 298 298 298 297 299 301 302 302 301 300 302 305 305 303 305 306 305 305 305 304 304 305 306 305 303 302 302 303 304 304 304 304 303 303 303 303 304 305 307 306 305 305 305 303 302 302 302 302 302 302 303 303 303 303 303 303 303 304 304 304 304 304
294 294 294 294 293 293 293 292 293 293 292 294 293 292 291 291 292 293 295 297 299 299 298 299 300 301 300 298 296 296 299 301 301 302 300 300 303 304 304 303 305 307 306 305 306 305 304 305 303 303 302 301 301 303 304 304 303 304 304 303 303 303 303 303 305 306 304 305 304 302 302 301 301 302 302 301 301 302 303 303 303 303 303 303 303 304 304 304
295 295 294 294 293 293 292 293 294 292 293 295 293 291 291 291 291 294 296 297 299 300 299 298 299 299 299 298 296 297 300 301 301 302 300 300 304 303 303 304 305 306 306 305 306 306 305 304 303 303 302 301 302 303 304 304 303 303 305 304 303 304 304 303 304 304 304 304 304 303 303 303 303 306 306 304 302 303 303 303 303 303 304 303 304 304 303 303
295 294 294 293 292 292 292 294 293 290 293 296 292 291 291 291 293 295 296 299 300 300 299 298 299 299 297 297 297 299 301 300 301 301 299 301 304 303 303 303 303 305 306 306 306 306 305 304 303 303 303 302 302 304 304 304 303 302 304 305 305 305 304 303 304 303 302 302 304 304 304 304 305 307 308 306 305 305 304 304 304 304 304 304 304 304 303 302
294 293 292 292 291 291 292 293 292 291 295 296 292 291 291 292 293 294 296 301 302 301 300 300 301 300 299 298 297 298 301 301 299 297 297 301 303 303 303 303 302 304 305 305 303 303 303 304 304 304 303 303 303 303 303 304 302 301 303 305 306 306 305 303 302 302 301 300 302 304 303 301 301 303 304 304 306 306 304 304 305 304 305 305 304 304 304 303
293 292 291 291 290 290 291 291 290 292 295 293 291 291 292 292 293 295 299 303 303 301 301 301 300 299 299 299 297 300 303 302 299 297 297 300 302 302 302 303 303 303 303 301 300 301 304 304 305 304 302 302 302 301 302 303 301 301 304 305 305 304 303 303 302 302 301 300 301 302 302 301 299 300 302 303 305 306 305 304 304 304 304 304 304 304 304 304
293 292 291 290 290 290 290 290 291 293 293 291 291 292 292 293 294 297 301 301 301 301 301 301 299 298 298 298 298 301 302 301 302 300 298 298 301 302 302 302 303 303 303 301 298 301 305 305 304 305 303 302 300 300 301 302 301 303 305 305 304 303 302 302 301 300 300 300 300 301 302 302 300 301 302 303 303 304 305 306 304 303 302 303 303 303 303 304
291 291 290 290 290 290 290 291 292 293 292 290 291 292 293 293 295 298 300 298 299 300 301 300 299 298 298 299 300 301 300 300 302 300 297 298 300 301 302 302 303 302 303 302 300 300 303 303 303 305 304 301 299 300 302 301 301 303 304 303 303 302 301 301 301 300 299 299 299 300 301 301 300 300 301 302 303 303 305 305 304 303 302 302 302 302 303 303
290 289 290 290 290 289 291 294 295 293 291 290 292 292 293 295 298 300 298 297 298 300 301 300 299 298 298 300 301 300 300 299 300 299 299 300 300 299 300 301 300 300 302 303 302 301 301 301 301 303 303 300 300 301 302 303 302 303 303 301 301 301 300 301 301 300 300 299 298 298 299 299 299 299 300 302 303 304 303 303 303 303 303 303 303 302 303 303
289 289 289 289 290 290 291 294 294 292 290 291 292 293 295 298 300 300 297 297 297 298 299 298 298 297 297 298 298 298 298 298 299 300 301 301 301 300 301 301 299 300 301 301 302 301 301 301 301 301 301 300 301 301 301 302 302 302 301 300 299 300 300 300 301 302 301 299 298 299 299 299 298 298 300 301 301 302 301 301 302 302 302 303 303 302 302 303
289 289 289 289 290 291 291 292 291 290 291 291 292 294 298 299 299 298 298 297 297 297 297 296 296 296 295 295 297 297 297 296 297 298 299 300 300 301 301 300 300 299 297 299 300 300 301 302 302 301 301 300 300 301 301 301 302 301 301 300 299 299 298 298 300 302 301 299 299 300 300 300 299 298 298 299 299 300 300 301 301 300 301 301 301 302 302 302
289 289 289 289 290 290 291 291 290 291 291 292 294 296 298 297 296 298 299 298 297 297 296 295 294 295 295 295 297 297 295 295 296 297 297 298 298 299 299 300 301 299 296 298 299 298 299 301 303 302 301 301 300 299 299 300 301 301 300 301 300 298 298 297 298 299 299 300 300 301 301 300 300 300 300 299 299 300 300 300 300 300 300 301 301 301 301 301
289 289 289 290 291 291 291 290 290 291 291 293 297 298 297 295 296 298 299 297 296 296 296 295 294 295 295 295 296 297 296 295 296 296 296 296 297 297 298 299 301 300 298 299 299 297 297 298 301 302 300 301 301 300 299 299 299 299 300 301 300 299 299 297 297 298 298 299 300 301 301 301 302 302 302 300 300 301 301 301 301 301 301 302 302 301 301 301
289 289 290 291 292 292 291 290 291 291 290 294 298 297 296 295 296 297 297 295 295 296 295 295 295 296 296 296 295 295 296 295 295 295 295 296 296 297 297 298 298 298 299 300 298 298 297 296 299 299 297 298 300 299 299 300 300 300 300 301 300 300 299 298 299 299 299 300 300 301 301 301 302 302 301 301 300 300 301 301 301 301 301 301 301 301 301 301
289 289 291 292 292 291 290 290 290 289 291 295 297 296 296 295 294 296 296 295 294 294 294 294 296 297 297 296 294 293 294 294 294 294 294 295 296 296 296 294 295 296 297 298 298 297 298 298 297 296 296 296 296 296 297 298 300 300 299 300 300 300 300 300 300 300 299 299 299 299 299 299 299 300 300 300 300 299 299 299 299 299 299 300 300 299 299 299
289 289 291 291 290 289 290 290 290 290 292 296 296 296 295 294 293 294 295 294 293 294 293 294 296 296 296 295 294 292 292 293 293 293 294 295 296 296 295 292 292 293 292 294 296 296 296 296 295 294 295 295 294 295 296 296 297 298 298 299 299 300 301 301 300 300 300 299 299 298 298 298 297 298 299 299 299 298 297 296 296 296 296 297 297 297 298 298
289 289 291 292 290 288 289 289 289 291 294 295 295 296 295 294 294 294 293 293 293 293 293 293 295 295 294 294 294 292 292 294 294 293 294 295 294 294 293 291 290 290 290 291 294 294 293 293 294 293 294 294 293 294 295 295 295 297 297 298 297 299 300 300 300 300 300 299 298 298 298 297 297 298 298 298 297 296 295 295 295 295 295 295 295 296 296 297
289 290 292 293 290 288 289 289 290 293 295 294 295 296 293 292 293 293 292 292 292 292 293 293 293 294 294 294 293 292 292 293 293 293 293 294 293 291 290 290 289 289 289 290 291 292 291 292 292 292 293 292 291 293 294 294 295 296 297 296 297 297 297 298 299 299 299 299 299 298 298 298 297 297 297 296 295 294 294 293 293 293 293 293 293 294 294 295
289 290 292 292 289 288 289 290 292 294 295 294 295 294 291 291 292 292 292 291 291 291 291 291 291 292 292 292 291 292 292 291 291 291 291 292 291 289 286 287 287 287 288 288 289 290 290 291 291 291 292 291 291 292 293 292 294 295 295 295 295 295 294 295 296 297 297 298 298 298 298 297 296 296 295 294 293 292 292 292 292 291 291 291 292 291 291 291
290 291 292 291 289 288 289 291 294 294 294 295 293 292 291 291 291 291 291 290 290 290 290 290 290 290 290 290 290 290 290 290 290 290 290 290 290 288 285 284 286 286 287 288 288 288 288 289 289 289 290 290 290 291 290 290 290 291 291 291 292 291 292 292 293 295 296 296 296 297 297 296 295 294 293 292 291 291 290 290 290 290 290 290 289 288 288 288
290 291 291 289 288 288 289 292 294 293 292 293 291 290 291 290 289 289 289 289 289 289 289 290 289 289 289 289 289 289 288 289 289 289 289 289 288 287 285 284 285 285 286 287 286 286 286 286 286 287 288 288 289 289 289 289 288 288 289 290 290 290 290 290 290 291 294 294 294 295 294 295 295 293 291 290 290 290 290 289 289 288 288 288 287 286 285 285
290 290 289 289 288 288 289 292 293 292 291 290 289 289 289 289 288 288 288 288 288 288 288 288 288 288 288 288 287 287 287 287 287 287 288 287 286 285 285 284 285 285 286 285 285 285 285 284 284 285 286 286 286 287 287 288 288 287 288 288 288 288 287 288 288 290 290 290 290 291 292 294 294 293 290 290 290 289 288 287 287 286 286 285 285 284 283 283
289 289 289 289 288 288 289 291 291 291 291 289 288 288 288 288 287 287 287 287 288 287 287 286 287 287 286 287 286 286 286 286 285 286 286 285 284 284 284 284 284 284 284 284 284 284 283 282 282 282 283 284 284 285 287 287 286 286 286 286 286 285 284 285 286 288 288 288 289 289 289 291 292 291 290 289 288 288 287 285 285 284 283 283 282 282 281 281
288 289 289 289 288 288 289 289 289 289 289 288 287 287 286 286 287 287 287 287 287 287 286 286 286 286 285 285 285 284 284 285 284 284 285 285 284 284 284 283 283 283 283 283 283 283 282 282 282 282 282 282 283 284 285 285 284 284 284 284 284 284 284 284 285 285 286 288 289 288 288 289 289 289 289 288 287 286 285 284 283 282 281 281 280 280 279 279
288 288 289 289 288 288 288 288 288 288 287 286 285 286 286 285 286 286 286 286 286 286 285 285 286 285 284 284 284 284 284 284 284 284 284 284 284 283 283 283 282 282 283 283 283 283 282 282 283 282 282 282 282 283 283 283 282 282 282 282 282 283 283 284 284 283 284 285 286 286 287 287 287 287 287 286 285 284 283 282 281 280 279 279 278 278 278 278
288 288 288 287 287 288 288 287 287 287 286 285 285 285 285 284 284 285 285 285 285 284 284 284 284 284 284 284 283 283 283 283 284 284 283 283 283 283 282 282 282 282 283 283 283 283 282 282 282 282 282 282 282 282 282 282 281 281 281 281 281 281 282 282 282 282 283 283 282 283 285 284 284 285 285 284 283 282 281 280 279 278 278 277 277 277 277 277
288 288 287 286 286 287 287 286 285 286 285 285 285 285 284 284 284 284 284 284 284 283 283 283 283 283 283 283 283 282 283 283 283 283 283 282 282 282 281 281 281 282 282 282 282 282 281 281 281 281 280 281 281 281 281 281 280 280 281 281 281 281 280 281 281 281 282 282 281 283 283 282 283 284 284 282 281 280 279 278 277 276 276 275 275 275 275 275
287 287 287 287 286 286 286 285 285 285 285 285 285 285 285 284 284 284 284 284 284 284 283 283 283 283 284 284 283 282 282 282 282 282 282 282 282 282 281 281 282 281 281 281 282 282 281 280 280 280 279 280 280 280 280 280 280 280 280 280 280 280 280 280 280 281 281 281 281 282 282 281 282 283 282 280 279 278 277 276 275 274 274 274 273 273 273 272
287 287 287 286 286 286 286 286 286 285 285 285 285 285 285 285 285 285 285 284 284 284 284 283 283 283 284 284 283 282 283 283 282 282 282 281 281 281 281 281 281 281 281 281 281 282 281 280 280 280 279 279 280 280 280 280 280 280 280 280 280 280 280 280 280 280 280 280 281 281 281 281 282 281 279 278 277 276 275 274 274 273 273 272 272 272 271 270
286 286 286 285 285 286 286 286 286 285 285 285 285 285 285 285 285 284 284 284 284 283 283 283 282 282 283 283 282 282 282 282 282 282 282 281 281 281 281 280 280 280 281 280 280 281 280 280 280 280 278 278 279 279 279 280 280 279 279 279 280 280 280 280 280 280 280 280 281 281 281 280 278 277 277 276 275 275 274 273 272 272 271 271 270 270 270 269
286 286 286 285 285 286 286 285 286 285 285 285 285 285 285 284 284 284 283 284 283 282 282 282 282 282 282 282 282 281 281 281 281 280 281 280 280 280 280 280 280 280 280 280 280 280 280 279 279 279 278 278 278 279 279 279 278 277 278 279 279 279 279 279 280 280 280 280 280 280 278 276 274 274 274 273 273 274 273 272 271 270 270 269 269 269 268 268
Wind_Speed
21 22 21 20 19 15 12 11 12 13 13 13 12 11 10 11 11 12 12 12 13 14 14 14 13 12 12 10 8 8 8 6 2 1 2 6 5 3 2 3 3 4 6 6 5 3 2 2 4 7 8 11 12 11 11 8 9 8 3 3 3 4 4 6 6 4 2 2 4 7 10 7 2 7 9 6 6 10 12 15 20 20 19 20 18 15 18 18
21 21 21 20 19 17 14 13 12 12 13 13 12 11 10 10 10 11 12 12 12 12 13 13 13 11 12 10 7 8 7 4 1 1 7 7 2 2 2 3 3 5 8 7 3 1 2 4 6 8 9 10 9 10 11 8 10 8 3 3 5 3 3 6 7 4 4 5 3 2 5 6 3 5 8 5 5 9 8 9 12 17 16 14 15 17 17 16
22 22 21 20 19 17 16 16 15 13 13 13 12 11 10 10 10 10 11 11 11 12 12 12 11 10 11 10 8 9 5 2 1 5 8 3 1 2 2 3 3 6 7 5 3 5 3 5 7 9 10 9 9 10 9 8 9 9 6 4 4 1 5 8 9 7 6 6 4 3 2 1 2 3 6 5 4 7 6 5 6 10 12 10 8 8 10 10
23 23 21 19 19 18 16 16 16 16 16 15 14 13 12 11 10 10 10 11 11 11 11 10 9 8 9 8 8 8 4 2 2 9 8 1 2 2 1 3 3 5 5 3 5 7 4 5 6 9 9 7 9 9 7 10 8 6 7 5 1 2 2 7 10 9 8 6 5 3 2 2 1 1 3 3 3 5 6 7 8 8 10 12 9 6 8 7
22 22 21 18 18 18 17 16 15 16 17 17 17 15 14 13 12 11 10 11 11 10 10 9 8 7 7 7 7 7 4 1 3 10 8 4 5 2 0 2 4 3 5 6 4 4 5 5 4 7 7 5 8 6 7 14 9 2 6 7 1 1 1 8 9 7 7 5 5 3 0 1 2 4 6 5 4 3 3 6 6 7 9 12 12 10 12 11
23 23 21 18 17 17 16 17 15 15 16 17 18 18 17 16 14 13 12 12 11 11 9 7 6 6 6 6 6 6 3 2 4 7 6 6 7 3 0 1 3 4 7 7 3 2 4 4 5 7 6 5 7 6 9 14 10 2 5 8 2 3 2 8 8 5 5 3 3 3 1 2 2 4 8 10 10 7 5 5 6 9 10 12 13 14 15 14
24 23 22 19 17 17 16 16 16 16 16 16 17 18 19 18 17 16 14 13 12 11 8 5 5 4 5 6 6 6 3 5 9 9 8 8 7 4 1 2 3 5 8 4 1 3 3 5 8 8 6 5 5 8 8 8 7 4 4 6 2 4 2 2 5 3 3 3 3 3 2 4 4 4 7 10 13 12 10 11 12 14 15 15 15 17 19 19
25 23 22 21 19 18 18 17 17 18 18 17 17 17 19 19 18 18 16 15 14 10 6 4 4 4 5 5 5 5 5 9 12 10 8 9 6 4 2 3 3 5 5 0 3 2 3 6 8 7 5 3 3 4 6 6 4 7 5 4 2 3 4 4 1 4 4 5 6 6 6 7 10 8 7 13 17 16 15 14 14 14 14 17 19 19 21 22
25 24 23 21 20 19 19 19 19 19 18 18 18 18 19 19 18 18 18 17 14 10 5 3 4 4 5 5 4 4 6 11 13 9 7 8 5 3 2 2 3 5 3 1 3 3 4 6 6 5 3 2 3 1 7 5 3 6 8 3 1 2 5 6 6 7 6 7 6 6 8 9 11 9 10 19 23 22 21 19 18 17 17 20 23 23 23 23
24 24 23 21 19 19 20 20 19 19 19 18 17 18 19 19 18 18 18 18 15 10 5 3 3 4 5 5 3 2 5 9 11 9 8 7 5 3 2 2 3 4 1 1 2 2 3 2 2 4 1 2 3 1 5 4 1 1 6 4 4 8 8 8 8 8 7 8 8 7 6 8 10 6 6 13 12 12 17 19 20 21 23 24 23 24 24 23
24 23 23 21 20 19 20 20 19 19 19 18 17 18 19 20 19 18 18 17 14 10 7 5 3 4 6 7 5 3 6 9 8 8 7 5 4 2 2 3 5 5 1 1 1 3 3 1 3 4 2 1 3 3 3 3 1 1 4 5 7 10 10 10 9 9 7 4 9 9 6 9 9 6 12 17 9 5 7 10 13 16 19 19 19 19 19 20
25 23 22 21 20 20 19 19 19 19 18 17 16 17 18 19 19 18 18 16 13 10 9 5 4 5 4 8 7 6 8 9 8 7 5 3 2 1 1 2 5 6 3 1 3 6 5 4 6 3 2 2 3 3 2 2 2 3 2 3 6 7 9 12 11 10 9 3 6 7 4 7 8 10 20 21 15 12 11 12 12 13 16 16 16 16 16 18
26 24 22 20 20 20 19 19 19 19 18 16 15 17 18 18 18 19 18 15 13 11 8 5 5 3 2 4 7 9 9 9 6 5 2 1 1 1 1 2 6 8 7 4 6 7 6 7 6 1 3 2 0 1 1 1 1 3 3 2 4 5 6 10 10 8 8 4 6 6 1 3 7 14 18 11 9 13 13 14 14 14 15 15 16 16 16 17
26 25 23 20 19 20 19 19 21 20 18 16 15 17 18 17 18 18 15 15 14 11 8 5 4 1 3 3 5 8 8 7 4 3 2 3 3 4 3 2 5 9 9 6 6 5 5 7 5 1 3 2 3 1 1 1 2 2 3 3 2 3 2 5 9 9 6 3 6 5 1 3 4 10 11 6 7 9 9 10 9 10 10 10 11 12 13 14
26 25 24 21 19 19 19 21 22 21 19 17 16 17 18 17 17 15 13 13 12 10 8 6 1 3 3 2 3 5 5 3 3 3 3 5 4 2 2 2 3 7 7 5 6 5 6 7 3 1 2 1 2 1 2 2 3 2 2 3 3 4 2 4 7 8 5 3 6 5 2 3 2 7 9 7 7 7 7 7 6 6 6 8 9 8 10 10
25 25 25 23 20 19 20 21 22 21 20 18 17 17 18 17 14 13 12 10 10 10 7 3 1 3 2 1 2 4 4 3 4 3 3 6 5 2 2 4 3 5 5 4 5 5 6 6 1 2 1 1 1 1 3 3 3 4 4 3 4 5 4 4 4 6 5 5 5 4 2 2 2 6 8 7 8 9 8 7 7 8 10 11 11 10 10 10
25 26 26 24 21 20 21 22 22 22 20 18 17 17 16 14 13 13 9 6 10 9 3 3 3 1 0 1 4 5 5 6 5 3 3 7 6 4 4 4 4 5 6 6 5 4 4 3 0 2 1 2 3 3 2 3 4 4 4 4 4 4 4 4 3 4 6 5 3 4 4 4 3 5 9 10 10 11 11 10 11 12 13 13 13 12 11 11
26 27 25 22 20 21 21 22 24 23 20 19 18 16 12 11 13 10 4 9 12 5 2 3 3 1 1 3 4 5 6 8 5 2 2 6 7 8 6 4 5 5 4 4 3 4 2 1 1 1 1 3 3 4 3 2 1 1 1 3 3 2 1 1 3 4 5 4 4 4 5 7 7 7 10 13 14 14 14 13 13 12 12 13 13 14 13 13
26 26 24 21 20 20 21 23 24 23 21 18 17 15 11 10 11 3 3 11 9 0 1 2 2 3 2 1 4 6 7 7 4 2 3 5 7 7 6 5 5 3 2 2 2 4 2 2 2 1 3 5 6 7 5 1 3 2 1 1 2 3 3 2 4 5 4 3 4 6 6 7 7 6 8 12 14 14 14 13 13 12 13 14 15 17 18 17
26 26 24 21 19 20 20 23 24 23 23 21 19 15 11 12 8 0 8 14 3 2 5 8 7 6 4 1 5 6 5 5 4 3 4 5 6 4 3 4 3 1 2 2 3 3 3 2 3 4 3 4 6 4 0 4 5 2 2 1 2 3 3 1 3 4 4 0 4 4 6 7 7 6 6 10 12 11 11 11 12 12 14 16 17 19 20 21
26 26 24 20 19 19 20 22 22 22 23 23 22 14 9 9 5 3 15 13 2 6 10 9 6 4 4 6 9 6 5 5 4 3 5 7 7 3 3 4 2 2 4 3 3 2 2 3 5 4 2 4 3 3 5 5 4 3 1 3 3 3 4 4 2 4 6 2 2 3 6 8 8 7 8 9 10 10 10 11 13 15 16 18 19 20 21 22
27 27 25 21 19 19 19 21 20 20 22 20 20 16 12 8 4 3 8 7 9 10 7 5 2 1 3 4 9 8 7 3 4 6 6 7 6 3 5 5 3 3 4 3 3 2 3 4 3 1 4 6 5 4 4 3 1 1 1 3 4 4 4 4 1 3 4 2 2 4 7 10 10 9 10 10 10 14 19 19 19 19 18 18 19 19 20 20
26 26 24 21 20 18 19 19 16 19 21 18 21 20 12 9 6 3 3 6 10 6 1 2 1 1 3 2 3 8 8 2 4 7 7 8 6 4 4 4 4 3 4 4 4 3 3 3 3 4 4 5 3 4 4 2 2 3 4 3 4 4 3 3 2 3 2 1 4 5 7 10 10 9 10 14 18 20 23 23 21 21 19 18 18 17 18 18
24 25 23 21 19 17 19 17 14 18 18 15 19 19 15 12 8 5 3 6 6 2 1 1 3 3 3 4 7 8 3 1 4 6 9 9 5 4 4 3 4 3 4 6 6 4 4 2 6 5 3 2 2 4 5 4 3 5 6 5 5 6 4 3 0 1 1 2 5 4 6 8 7 8 8 11 16 17 17 17 17 19 20 19 19 20 20 21
24 24 23 22 19 18 18 14 14 19 14 11 17 19 16 13 8 7 4 5 3 1 2 3 3 3 5 6 8 5 2 1 2 4 9 9 5 3 2 2 2 2 3 5 5 5 5 2 6 5 3 4 3 4 5 5 3 4 5 4 6 6 3 2 4 3 3 3 3 2 3 5 1 5 8 4 4 7 10 11 12 15 18 18 20 21 22 23
24 24 23 22 19 19 17 11 14 17 10 9 16 17 15 12 8 7 4 3 1 1 2 3 3 2 3 3 4 2 1 1 1 3 9 10 7 2 2 2 3 1 1 2 2 3 2 3 4 2 2 3 3 4 5 5 3 3 2 2 2 5 6 4 3 2 1 2 1 5 1 6 5 7 10 5 5 7 6 6 8 12 16 17 20 22 23 23
24 23 23 21 19 19 16 12 15 13 7 10 15 15 14 11 8 6 2 2 2 2 3 2 2 2 0 1 2 1 1 1 1 3 8 10 7 2 2 2 2 0 0 1 1 1 2 3 2 1 2 3 3 4 4 5 4 2 1 3 6 7 5 3 2 1 2 3 3 1 3 5 9 9 6 6 9 8 6 7 7 9 14 17 19 21 22 22
23 22 21 21 19 17 16 15 13 10 9 12 14 13 13 10 7 4 1 2 1 2 3 3 2 2 1 1 1 0 1 2 1 2 5 9 6 3 3 3 2 1 0 1 2 1 2 2 1 2 3 4 3 3 3 3 2 1 2 5 6 5 5 3 1 1 3 3 4 5 5 4 9 6 3 6 8 6 5 7 7 10 16 19 20 20 20 20
23 21 20 20 18 14 14 13 8 7 11 12 11 11 11 9 5 2 1 2 1 2 2 3 4 3 2 1 0 1 1 2 0 1 3 7 5 2 2 3 3 2 2 2 4 4 1 2 1 1 1 4 4 4 3 3 2 3 5 5 6 4 3 2 2 2 2 3 7 10 7 4 9 7 1 3 5 4 6 8 7 12 18 20 21 21 21 20
22 21 20 18 18 14 9 6 6 10 14 12 10 10 9 7 3 0 2 2 1 2 3 4 3 3 4 1 1 2 1 2 2 2 2 3 4 3 4 4 3 2 3 4 6 8 6 3 2 1 5 4 3 3 2 3 1 4 4 3 3 1 3 3 4 3 2 4 12 16 10 6 8 7 3 4 4 4 6 6 5 9 13 16 17 17 16 15
20 20 20 17 17 13 6 2 6 11 12 10 9 9 8 4 0 1 2 1 2 1 2 3 2 5 4 2 1 1 1 1 1 3 2 1 4 4 3 4 2 1 3 4 5 8 7 4 1 3 9 6 1 1 1 1 2 3 3 2 3 3 2 2 3 4 3 7 11 12 10 9 8 7 5 6 7 7 7 7 8 7 6 5 6 8 8 8
19 19 19 17 15 11 7 5 6 9 9 8 8 9 5 1 1 3 2 1 1 1 2 2 2 3 4 2 1 1 0 1 2 3 2 1 2 3 2 2 1 1 5 3 2 4 3 5 4 4 8 10 5 2 3 2 1 1 2 3 0 3 1 1 3 4 5 8 6 5 7 7 7 11 13 13 11 10 9 9 10 9 7 9 11 11 10 9
18 19 17 16 13 8 6 7 8 8 8 7 8 6 2 1 1 2 1 2 1 1 2 2 2 2 2 3 1 1 1 2 2 1 0 1 1 3 3 3 3 2 5 3 3 5 2 3 5 4 4 8 8 3 3 3 4 6 5 4 4 3 2 4 5 4 5 7 8 8 7 4 4 9 15 17 15 15 18 20 20 18 16 17 19 16 13 12
17 16 15 14 10 6 7 8 8 7 7 8 6 2 0 1 2 1 1 2 1 1 2 3 2 1 0 1 1 1 1 1 2 2 1 1 2 2 3 3 3 3 3 2 2 3 3 4 2 3 1 3 6 5 4 2 2 5 5 5 5 5 5 5 4 4 4 5 6 7 6 4 5 5 5 7 6 8 14 17 17 15 12 12 13 13 12 13
16 13 13 10 5 5 7 7 7 8 8 7 4 2 1 2 3 1 2 1 2 2 2 2 2 2 2 2 0 3 1 1 3 3 1 1 2 2 1 1 2 1 1 2 2 2 5 5 1 4 5 4 1 2 4 4 4 4 3 5 6 6 5 4 4 4 3 4 3 3 3 4 4 3 1 2 1 0 3 6 8 8 9 9 9 10 11 10
16 13 10 6 5 7 7 4 7 9 7 5 2 3 2 1 1 2 2 2 2 3 6 6 3 2 4 2 2 2 1 2 2 2 1 1 2 2 1 4 5 4 2 1 1 1 3 3 3 6 6 6 5 5 5 3 2 2 1 3 4 4 4 4 6 5 5 6 5 4 6 5 4 7 4 4 7 4 4 5 5 10 12 10 15 23 25 23
18 14 9 6 6 9 6 6 9 8 4 2 2 3 1 2 2 3 4 4 2 1 4 4 1 2 2 1 2 1 1 0 0 1 0 0 1 1 3 4 6 6 5 4 1 1 0 2 3 4 3 4 8 8 7 5 2 1 0 2 3 2 1 2 4 4 5 8 6 7 10 7 5 6 3 4 7 6 9 10 12 20 24 22 25 29 29 29
18 13 6 4 8 12 10 10 8 4 1 1 4 3 1 3 4 4 6 5 3 2 2 3 1 2 0 1 1 1 1 1 1 1 0 2 1 4 6 3 5 7 9 8 2 1 3 2 4 2 5 3 9 7 6 7 4 4 4 3 2 0 2 1 3 4 6 8 5 7 10 7 6 5 3 4 7 9 10 12 13 16 21 23 26 29 30 30
16 11 3 4 11 16 12 6 2 1 1 2 3 3 1 2 4 6 7 6 3 2 2 3 2 1 1 2 2 1 1 1 1 2 1 2 1 6 7 5 4 7 11 8 1 2 3 2 3 2 2 4 6 2 3 4 5 4 4 3 2 3 3 3 3 2 4 7 6 8 8 4 3 2 4 7 10 11 10 11 11 14 20 23 25 28 29 29
14 9 3 5 15 14 7 4 3 0 2 2 1 1 1 1 4 6 6 6 3 2 1 2 3 2 2 3 3 2 0 1 1 2 1 2 2 3 5 6 4 6 9 7 2 2 2 3 3 1 3 4 2 1 1 2 3 3 3 3 2 1 2 2 3 1 2 4 4 6 6 2 1 2 7 11 12 11 11 10 9 14 21 24 25 28 30 30
13 5 4 11 16 9 5 4 1 1 2 0 2 1 2 2 4 6 7 6 4 3 2 3 3 3 3 3 4 3 2 1 1 1 2 2 3 1 3 5 5 5 5 2 2 3 1 3 3 3 3 3 4 2 3 3 2 3 2 2 2 3 3 3 3 3 4 4 3 5 5 2 1 2 8 12 11 10 12 11 10 16 23 24 25 27 28 29
9 3 7 15 11 5 7 4 1 2 1 1 2 1 3 4 3 5 7 7 5 3 2 2 1 2 2 3 3 3 3 2 2 2 3 1 2 2 3 5 6 5 3 1 2 4 3 1 3 5 5 5 7 8 7 6 4 3 3 2 2 3 2 2 3 2 2 4 4 5 5 4 2 5 10 11 10 12 15 15 14 18 22 23 24 26 27 29
8 8 11 12 7 7 8 2 2 2 1 2 3 2 5 5 3 5 6 5 4 2 1 2 2 2 1 1 2 3 3 1 2 3 3 2 2 4 4 6 6 5 3 1 1 3 4 2 2 4 5 5 6 8 8 7 6 4 4 3 2 2 3 2 3 3 3 4 4 4 5 4 2 4 9 12 13 15 18 19 18 18 21 22 23 25 26 28
11 13 11 8 7 9 7 1 1 2 1 4 4 4 7 6 4 4 3 4 4 2 2 3 2 2 1 2 2 1 2 2 1 2 0 2 2 6 5 6 7 4 3 2 1 1 2 0 1 1 5 5 3 4 4 4 4 3 2 3 2 5 7 5 3 3 3 5 6 6 5 3 3 6 5 12 14 13 16 19 19 17 19 21 23 24 25 27
11 9 5 4 5 7 4 1 3 3 3 5 3 3 5 4 4 5 3 5 6 1 1 1 2 1 1 1 1 0 1 2 1 2 2 1 1 4 4 6 7 4 2 2 2 2 0 1 1 1 5 6 4 2 1 2 2 2 3 6 6 6 7 5 2 4 4 6 9 8 6 5 7 12 10 10 12 11 12 16 18 18 18 20 22 24 25 27
6 4 1 3 4 4 1 1 4 2 3 5 3 2 2 1 3 6 4 4 6 5 4 5 4 2 2 1 1 1 1 3 4 2 1 3 2 2 3 4 5 1 2 5 6 2 1 2 3 4 7 7 7 7 6 7 6 6 8 10 9 8 7 4 3 5 5 5 8 8 7 8 8 11 11 10 11 9 10 13 15 17 19 20 21 23 24 27
3 1 2 4 3 2 1 4 6 4 3 4 2 2 2 3 4 5 4 3 4 3 3 5 4 1 1 2 0 2 3 3 5 6 5 5 2 1 2 2 1 5 7 6 4 1 1 4 6 6 8 9 9 9 9 8 8 9 10 12 13 11 10 7 7 8 7 7 9 9 11 11 10 13 13 9 9 7 8 11 13 15 18 20 22 24 25 27
2 1 2 2 1 1 1 4 5 4 4 5 4 3 4 6 4 4 3 5 6 2 1 2 2 2 3 4 2 2 3 2 4 7 6 3 1 0 1 1 3 7 6 3 4 3 1 4 5 5 7 9 9 9 8 8 8 8 9 12 14 15 15 13 11 10 9 9 9 11 14 13 13 14 11 7 8 8 9 11 13 15 18 19 21 24 26 28
4 4 4 2 2 4 6 7 7 7 6 6 5 4 6 7 6 8 6 3 3 2 3 1 3 3 4 4 3 4 5 4 4 4 3 1 1 1 1 2 4 7 5 2 4 4 2 3 6 6 7 9 10 10 9 9 9 9 10 12 13 15 17 17 15 13 12 12 12 13 16 16 14 11 6 9 11 11 12 14 15 17 18 19 19 21 23 26
3 3 5 5 6 9 11 11 9 7 5 6 5 4 5 6 7 7 4 1 1 2 2 3 5 6 6 5 4 6 8 6 5 4 1 0 2 1 1 2 1 3 4 2 3 4 3 4 6 5 5 7 9 9 10 10 11 11 11 12 13 14 15 16 15 14 13 13 13 14 16 14 6 5 8 12 14 14 15 17 16 17 17 17 17 18 20 23
4 5 7 7 6 7 8 6 5 5 4 5 6 5 4 4 4 5 3 4 6 3 1 1 3 3 3 4 5 7 7 4 3 3 2 1 3 2 1 1 2 1 2 2 1 3 3 3 3 3 5 7 7 7 8 9 10 10 10 11 13 12 12 11 11 11 12 13 14 14 11 6 4 8 8 11 14 14 14 14 14 15 17 17 17 18 19 21
6 6 7 7 4 4 5 5 4 5 3 2 3 3 3 4 5 7 5 4 3 1 2 2 2 1 2 5 4 2 2 2 3 2 3 3 4 5 4 4 3 3 3 2 1 2 2 1 2 2 5 7 5 3 4 5 7 7 6 8 12 12 12 13 12 12 11 9 10 8 3 3 7 9 8 9 12 12 13 13 13 15 16 16 17 17 18 20
Wind_Direction
1 359 357 356 352 358 3 354 344 341 343 345 343 340 337 336 333 330 327 324 324 323 323 325 327 328 327 328 330 334 336 325 321 53 249 231 235 260 271 241 205 168 152 122 101 100 152 186 193 178 162 184 199 187 182 198 192 183 205 214 223 228 208 187 168 162 151 107 131 157 175 191 194 185 200 213 218 234 251 258 260 265 264 262 264 283 304 308
360 357 354 352 349 353 357 353 349 345 343 345 344 340 340 339 332 329 325 324 324 322 321 322 323 325 324 327 333 337 336 323 29 210 241 230 245 271 209 186 171 166 147 106 86 190 206 195 190 183 178 190 203 181 171 186 188 198 232 202 229 240 166 156 143 127 149 139 112 132 172 196 208 169 185 202 207 210 234 255 260 274 282 285 269 267 286 298
357 355 353 349 348 352 354 350 348 347 344 345 345 339 341 340 334 331 325 324 325 322 321 320 320 320 320 322 330 342 342 344 88 216 234 225 293 281 162 150 158 169 149 103 145 190 217 189 182 191 194 203 201 178 176 184 190 219 233 226 241 170 87 105 113 104 121 136 106 42 43 194 221 151 172 204 219 196 209 236 240 266 285 311 301 264 273 292
356 354 352 351 351 353 353 349 345 344 342 343 343 340 340 339 337 334 327 325 325 324 321 319 318 315 314 312 322 339 337 360 164 215 228 236 307 320 118 136 139 170 153 116 168 167 161 165 173 200 211 220 199 186 195 186 183 217 219 235 234 133 102 105 110 110 118 126 113 80 358 326 246 192 203 219 236 218 199 194 209 233 260 288 300 272 258 275
354 351 351 352 352 351 350 346 343 341 339 338 338 338 337 337 338 336 331 326 325 326 322 319 316 309 307 302 313 332 330 353 189 218 231 243 281 326 81 129 117 165 142 121 139 149 159 170 187 216 231 228 185 187 217 198 195 252 234 241 180 111 160 118 113 112 121 128 122 113 319 248 260 259 252 244 230 234 187 175 208 231 244 268 282 283 274 274
350 349 350 350 348 346 344 341 339 338 337 335 334 334 334 335 335 335 333 327 327 328 323 319 312 307 302 292 302 318 314 283 228 230 241 248 271 297 241 124 124 144 124 112 95 154 166 166 188 206 235 238 181 196 220 196 197 255 249 242 182 104 131 120 117 121 131 146 147 148 183 205 273 266 253 248 239 246 254 239 258 268 260 261 268 278 281 283
348 348 347 346 343 341 340 338 337 337 337 336 333 331 330 331 331 331 332 330 329 329 325 318 307 302 293 286 294 295 258 250 256 259 266 262 267 268 212 114 137 135 110 89 101 168 166 170 194 207 227 237 194 202 198 162 181 231 271 260 171 120 217 137 110 142 183 210 213 205 209 205 215 253 256 250 248 248 255 260 266 271 269 267 267 271 277 280
346 345 344 343 341 340 340 338 338 337 338 338 333 330 326 327 328 327 330 330 331 332 329 312 297 292 283 280 293 290 242 237 257 272 274 262 257 256 202 123 125 116 94 358 210 187 196 191 201 218 234 236 234 206 151 133 190 223 257 279 134 121 251 267 232 228 237 237 244 244 239 228 223 242 260 251 251 245 241 246 251 260 267 269 270 270 273 275
345 342 341 341 341 340 339 338 337 336 337 336 333 329 324 324 325 324 327 329 331 334 330 307 291 272 273 277 277 281 238 233 250 268 271 262 254 243 191 124 120 97 58 263 188 176 183 196 210 220 264 280 265 219 141 178 217 208 234 249 168 237 246 251 246 239 240 239 243 244 243 245 238 243 258 253 254 252 244 243 244 249 259 264 268 268 266 267
344 340 339 340 340 338 336 336 336 336 336 334 331 326 320 321 323 323 324 327 329 334 334 313 268 255 275 259 226 245 241 235 244 256 262 258 248 227 152 134 145 108 51 236 164 205 192 247 234 181 274 307 240 164 143 200 37 190 259 295 281 262 253 241 238 235 241 246 239 240 251 255 246 234 245 249 252 252 246 248 248 251 257 259 262 265 266 265
343 340 338 338 337 335 333 334 335 335 335 331 327 322 318 319 321 322 322 323 324 328 332 313 260 276 267 222 210 243 236 234 243 254 256 243 231 220 148 148 147 119 118 226 183 214 189 263 218 175 212 209 173 160 165 230 342 347 297 310 272 252 249 238 234 230 224 245 234 231 259 257 248 238 242 243 231 217 232 244 246 247 254 257 257 262 267 269
343 339 337 336 333 332 332 333 333 334 333 329 326 320 316 319 321 321 320 319 319 322 326 307 281 298 247 205 218 235 230 235 246 255 250 223 215 197 167 173 161 148 145 190 231 214 194 195 189 180 250 198 153 151 182 234 284 307 276 292 276 256 244 223 215 213 200 199 203 200 271 251 220 226 243 248 243 238 239 240 242 245 253 256 260 262 264 269
342 338 336 335 331 330 332 333 332 333 332 328 326 318 315 319 320 320 318 316 318 322 327 313 298 296 199 204 224 225 234 239 238 251 236 144 15 11 111 174 172 164 149 165 226 215 201 191 171 183 265 229 299 138 168 175 180 287 240 240 284 281 254 204 187 177 176 191 181 167 300 241 195 219 237 249 239 231 235 242 249 256 261 263 263 263 261 261
341 339 337 334 331 331 331 331 332 334 333 329 327 319 316 319 319 317 316 314 319 326 330 325 314 193 173 234 235 221 234 237 225 233 192 97 40 13 43 125 164 167 163 181 207 195 186 179 163 219 238 238 354 3 216 162 182 257 238 211 230 257 261 144 139 143 151 192 188 166 251 255 180 199 213 212 205 205 216 232 243 254 264 269 267 262 258 256
341 341 337 335 334 331 331 333 334 336 335 331 329 322 318 319 316 312 312 314 321 328 330 330 312 170 187 230 226 214 209 212 231 223 171 126 95 29 49 95 150 166 172 183 177 169 166 154 145 209 193 232 349 2 251 201 195 226 226 208 200 216 198 120 140 161 162 178 191 177 229 265 134 162 197 205 197 192 207 219 221 244 266 274 274 269 263 260
342 339 336 336 336 334 334 334 335 337 336 334 331 327 321 317 314 313 316 320 329 329 327 346 121 173 220 216 170 175 164 171 224 234 165 139 127 144 129 92 109 139 138 139 135 146 154 137 147 252 174 261 185 187 261 233 202 199 212 230 212 202 165 139 178 184 142 133 195 214 252 304 107 169 194 191 191 193 204 229 245 263 273 273 276 274 268 264
341 337 336 338 338 337 336 335 337 338 337 337 335 329 322 317 319 319 320 341 347 343 351 70 91 140 163 152 135 138 170 196 210 228 165 143 130 131 123 94 105 108 100 106 104 118 138 122 205 243 213 236 211 195 228 237 224 194 202 239 241 218 177 154 187 184 151 148 204 219 222 260 255 206 196 192 202 203 210 238 257 268 273 272 271 270 269 264
339 337 338 339 340 340 338 336 338 339 339 340 339 334 328 327 327 320 352 7 352 355 108 95 81 130 154 151 161 169 205 221 216 223 165 157 155 144 136 131 127 111 100 99 96 117 131 157 183 259 222 217 221 205 201 211 231 96 157 243 291 319 257 143 124 162 181 188 210 216 225 242 246 241 228 222 220 214 218 234 245 252 261 266 265 265 266 263
339 337 339 341 342 343 341 338 338 340 339 341 346 345 341 340 335 322 44 1 350 7 122 9 345 271 269 167 200 209 218 220 205 183 171 169 169 152 137 135 131 130 144 130 124 151 176 169 163 245 228 202 204 210 211 83 51 26 48 332 337 325 308 32 118 159 179 205 227 235 249 253 251 252 249 247 241 234 239 250 248 241 243 251 257 259 262 260
338 336 340 343 344 346 344 340 340 341 342 347 352 352 354 353 354 310 329 342 12 178 312 315 302 275 269 226 196 204 200 192 175 180 199 176 156 147 142 135 131 174 231 178 145 175 200 184 205 231 215 178 187 205 266 51 55 30 16 352 265 259 284 339 138 137 104 152 248 250 265 270 271 269 264 268 269 260 260 265 259 246 237 239 246 252 257 260
338 337 342 344 346 349 345 342 342 344 350 352 352 4 37 21 16 325 326 335 327 292 307 309 300 270 255 218 206 192 150 157 164 189 213 174 148 153 181 169 161 201 224 193 109 112 178 219 232 224 94 88 93 47 36 44 54 52 350 313 291 260 255 248 200 113 98 116 257 303 296 276 267 270 270 268 268 262 253 252 251 246 240 239 242 247 252 260
333 335 340 343 348 349 344 343 344 348 354 353 359 25 55 41 23 327 321 308 293 301 307 319 350 356 317 252 226 199 152 152 186 199 210 173 164 183 168 176 215 186 177 172 111 116 199 225 227 120 84 79 71 66 67 58 62 126 224 285 284 262 254 259 330 68 85 108 263 306 295 277 269 263 260 255 252 252 249 245 245 245 243 242 243 247 251 256
333 335 339 344 348 348 343 345 347 351 354 356 8 21 24 12 9 351 307 275 294 316 309 308 39 59 338 348 195 171 162 182 177 190 199 175 182 211 182 201 233 173 143 191 195 182 211 202 138 86 85 95 97 119 117 139 206 203 207 222 254 265 269 267 336 29 66 154 257 293 295 280 275 264 255 248 244 250 253 251 250 248 246 246 247 251 252 252
340 340 341 344 347 348 345 346 352 356 357 0 5 7 0 353 4 15 335 265 275 324 204 228 104 81 27 79 132 137 150 194 128 170 190 182 188 211 216 243 247 216 190 208 216 236 272 207 133 116 118 134 157 153 151 189 222 218 209 208 234 242 237 226 83 38 359 253 243 269 295 274 257 252 255 248 243 250 256 255 252 249 247 247 246 248 249 248
343 343 343 345 348 347 346 348 355 356 357 1 357 354 353 349 2 22 341 271 249 241 210 174 130 78 54 99 132 119 72 114 119 181 184 185 194 198 235 242 233 236 185 187 204 245 272 192 134 143 181 189 182 177 186 200 231 232 216 220 224 210 181 85 48 32 5 315 242 118 313 281 235 246 263 279 248 241 244 243 237 237 242 241 239 240 243 249
342 344 343 347 350 347 348 351 350 354 359 353 349 348 349 347 359 15 347 277 238 168 160 165 165 125 55 95 140 126 109 155 251 197 178 184 189 186 310 220 197 224 91 165 211 241 232 134 110 118 205 212 204 218 221 207 219 250 247 360 79 111 100 86 61 44 19 297 313 90 69 281 300 268 258 270 271 251 242 247 233 223 228 232 233 235 239 249
341 343 341 347 352 349 352 350 344 357 7 339 341 347 346 348 2 14 360 264 245 144 127 153 180 187 112 116 142 144 161 154 131 159 178 192 187 183 275 224 180 161 19 247 266 285 158 138 99 129 183 216 217 234 232 196 198 239 272 42 69 90 99 112 128 192 245 304 317 119 157 268 285 271 228 210 248 265 255 253 249 227 226 231 234 235 237 246
343 344 343 346 351 352 349 344 344 356 352 337 344 349 348 358 16 24 340 282 260 122 115 121 132 126 101 51 32 218 134 132 155 167 181 189 179 177 238 278 336 33 50 238 237 290 101 133 185 192 206 220 223 258 272 235 212 154 89 67 72 82 80 81 111 228 273 315 294 241 188 228 269 275 118 183 235 268 259 246 246 244 244 244 244 243 243 246
346 344 345 346 348 354 347 342 348 342 338 345 350 346 351 7 22 43 272 274 88 93 84 113 123 89 28 321 308 171 143 77 47 111 150 178 184 189 245 295 336 338 302 258 237 251 259 158 161 93 235 238 265 294 323 310 248 135 96 77 82 86 93 137 187 212 258 263 255 241 203 205 268 280 300 223 231 225 240 241 230 236 245 249 251 251 250 248
347 343 346 347 345 353 360 355 338 326 334 347 350 345 352 2 13 69 244 249 91 68 55 98 106 5 342 292 150 143 139 67 65 112 141 182 198 236 264 271 298 298 254 244 240 248 249 216 117 162 233 245 308 324 14 357 355 103 85 72 74 142 195 201 193 175 195 241 246 242 216 200 262 273 230 232 239 214 236 257 256 245 240 242 249 251 248 245
349 343 345 347 344 349 3 346 304 317 333 343 357 2 357 354 19 237 241 162 83 42 51 76 38 8 16 32 43 69 103 103 131 169 198 190 192 224 255 252 258 287 246 234 236 245 239 218 122 215 223 224 306 287 241 338 25 61 80 74 359 297 231 209 194 171 203 241 244 239 213 202 240 265 244 239 253 250 253 261 264 264 247 246 261 255 248 247
352 342 343 346 343 342 343 335 320 331 341 347 10 16 358 323 206 239 247 67 50 18 52 50 17 31 32 6 234 180 68 203 170 181 198 159 197 216 229 232 81 337 270 254 296 294 236 202 201 198 205 204 204 234 223 193 173 209 160 130 206 281 285 244 213 193 215 240 248 218 196 200 227 251 251 248 252 255 260 267 272 286 307 310 301 292 281 271
353 340 342 345 344 339 336 346 351 356 360 5 13 11 341 291 248 222 240 7 342 4 50 32 360 48 17 333 263 185 237 193 136 122 144 116 224 244 246 232 133 171 270 309 340 313 299 204 197 178 195 197 192 204 212 188 185 195 184 165 178 196 234 233 224 234 234 244 250 218 205 223 223 238 248 247 249 253 257 265 271 280 291 291 287 291 294 279
352 340 344 348 348 343 343 354 4 11 18 16 6 340 206 224 247 215 50 17 311 268 73 48 351 3 35 302 309 332 245 201 62 47 31 27 279 272 249 226 155 161 255 310 304 256 254 277 211 143 23 200 193 222 245 265 239 208 188 184 193 190 210 222 216 228 234 256 251 207 196 231 218 215 228 218 223 244 254 263 269 273 285 292 285 280 281 273
351 351 355 350 338 327 337 355 7 9 10 6 350 250 215 230 248 3 35 346 326 341 1 342 290 283 254 203 11 343 232 188 47 47 348 275 256 288 306 354 1 20 188 219 267 216 220 255 336 66 32 39 97 292 306 319 285 250 192 186 217 222 226 260 269 244 255 298 285 193 198 224 225 251 234 116 67 193 267 278 276 280 277 279 305 326 328 318
353 3 0 334 315 326 333 345 355 359 359 354 317 232 234 244 320 34 32 343 339 346 326 300 236 226 261 196 95 354 222 189 44 56 303 251 232 279 52 46 18 29 62 195 303 350 217 231 24 33 23 36 37 354 343 341 288 288 191 204 253 254 223 256 275 270 270 269 252 232 247 254 273 282 278 295 298 304 343 332 347 12 8 3 12 16 14 11
358 4 352 323 336 344 329 310 325 342 350 325 259 239 168 76 27 23 21 357 309 297 326 309 170 139 271 244 110 61 116 127 98 144 168 324 240 153 102 54 41 50 24 359 349 12 302 264 319 334 305 2 16 347 316 297 269 109 263 304 350 340 215 226 259 251 241 249 241 231 247 256 259 265 269 308 317 358 26 26 37 35 32 28 22 18 16 14
358 360 341 310 344 345 324 304 308 328 3 249 244 255 109 71 40 39 27 6 298 285 316 269 203 121 198 343 63 72 61 66 94 99 259 274 316 70 74 31 48 51 11 2 7 49 53 282 291 297 255 329 23 0 306 295 271 209 238 306 34 259 260 226 229 233 232 246 246 230 241 245 238 261 322 353 9 31 38 36 38 35 32 26 18 14 13 13
359 359 320 281 336 341 333 329 358 56 274 240 242 267 14 40 42 49 26 6 332 300 291 266 296 59 67 31 41 360 359 75 30 6 337 259 281 67 50 9 55 47 9 10 15 12 48 257 272 45 321 338 18 349 276 303 294 256 254 265 185 214 265 255 243 271 250 251 254 241 237 214 206 304 32 51 44 41 39 35 36 34 30 24 19 15 11 12
358 350 271 301 334 341 355 29 47 184 242 218 208 303 47 9 19 29 19 15 3 298 305 340 340 339 360 17 4 326 141 113 339 312 327 349 348 83 50 8 24 23 357 0 21 11 16 256 258 354 337 332 330 249 92 17 322 323 300 275 253 283 325 294 260 243 240 259 262 247 240 171 129 355 55 63 56 49 42 35 32 31 30 25 22 20 15 13
355 341 275 320 329 337 360 341 310 218 245 166 78 48 26 3 351 354 2 16 4 291 302 348 326 306 324 338 337 341 341 297 292 267 263 337 348 67 71 25 7 1 346 341 24 25 352 285 290 283 281 275 264 291 33 31 357 351 331 312 329 337 342 309 261 214 217 245 247 249 248 190 158 33 58 60 58 54 43 40 34 24 24 25 23 20 16 13
352 317 304 326 329 355 2 327 175 92 336 341 47 46 1 356 343 353 2 8 354 307 311 350 333 316 313 308 324 354 343 290 256 262 256 276 16 59 79 43 19 15 33 94 65 65 84 34 305 275 270 276 288 311 332 335 338 324 288 281 304 307 303 267 260 258 265 274 270 265 252 212 147 75 69 62 56 55 47 45 40 23 17 19 19 16 13 10
336 299 307 330 342 5 358 309 155 78 123 34 17 337 347 350 333 347 355 353 343 331 319 336 360 360 343 33 13 7 9 348 228 234 251 309 46 101 97 56 38 19 22 63 60 74 81 53 296 278 289 292 296 303 303 309 317 294 275 286 307 345 349 285 266 296 302 285 287 276 245 212 136 89 84 70 56 54 49 44 41 29 16 12 13 14 12 6
314 295 297 325 351 4 1 323 6 341 122 57 28 332 336 334 318 328 330 325 337 44 47 334 346 35 69 82 56 353 342 2 184 185 236 358 82 122 105 66 60 33 26 68 314 337 45 69 144 314 301 290 277 276 277 294 309 315 332 325 354 27 7 341 314 302 268 238 247 257 250 241 311 316 14 61 56 50 48 42 40 35 23 13 9 10 10 5
317 301 288 310 346 3 357 357 11 333 349 29 18 314 319 303 320 344 334 310 301 251 101 296 233 213 317 360 31 359 303 299 219 144 84 24 107 109 94 82 84 83 86 77 305 297 266 233 191 303 283 279 270 253 314 348 312 317 321 305 319 345 339 335 327 283 265 244 243 247 256 267 290 303 326 41 50 42 42 39 36 32 25 19 11 6 5 3
327 317 330 334 360 28 34 47 28 348 11 21 348 338 354 269 321 339 337 310 286 270 276 273 263 289 298 297 319 286 266 271 263 265 292 272 263 102 117 114 95 108 274 306 305 311 126 250 246 231 246 264 269 272 310 323 298 292 301 298 301 304 298 303 287 265 279 289 267 266 296 299 295 304 324 19 39 34 37 36 31 24 18 17 12 3 360 359
308 299 12 347 352 34 128 80 46 16 20 15 330 345 350 289 292 315 318 282 285 316 312 264 249 255 202 153 198 271 252 249 258 267 274 274 278 125 176 187 283 281 284 294 283 224 123 248 246 239 245 259 269 277 297 301 285 288 298 296 293 290 283 272 258 258 276 289 276 281 299 299 299 309 323 5 32 32 39 38 34 26 17 13 7 360 355 353
318 345 360 346 328 334 31 63 39 349 322 310 288 267 280 276 270 284 285 264 261 244 108 250 241 205 210 196 193 263 273 258 244 244 244 245 284 307 247 224 253 265 277 275 237 206 168 249 252 256 261 265 270 274 277 275 274 274 276 280 284 287 284 274 262 255 256 262 270 285 290 287 291 301 318 10 28 30 42 41 37 30 20 14 8 2 358 354
336 315 312 322 318 310 304 299 297 289 273 271 271 246 250 256 251 256 262 265 257 197 131 180 254 246 240 229 232 266 268 267 256 234 213 222 295 310 314 307 258 241 230 213 237 219 159 244 251 245 257 263 263 266 266 264 266 261 256 259 262 269 275 277 277 272 262 260 265 275 276 275 281 294 337 30 27 28 34 32 33 30 22 17 13 7 2 356
328 320 328 327 306 286 274 266 267 272 260 257 260 242 243 254 260 270 271 180 232 245 155 192 244 259 270 277 279 266 257 263 272 261 203 181 275 291 279 295 286 212 193 169 245 244 220 245 256 257 270 266 258 260 261 260 262 260 256 255 254 256 260 265 274 278 276 273 268 266 265 267 294 6 39 38 29 28 26 21 22 23 19 17 14 9 3 357
286 292 300 297 292 287 275 256 253 273 271 260 262 267 274 273 288 315 305 225 235 245 172 273 287 302 304 282 270 271 276 291 304 302 327 231 253 285 273 160 101 127 226 221 245 261 249 251 267 276 270 263 258 260 264 269 273 270 263 261 262 262 260 262 267 268 271 277 278 278 273 272 10 26 29 30 28 29 26 20 15 13 13 14 12 8 3 356
302 301 294 282 274 287 289 281 274 276 279 291 286 279 280 291 321 333 314 256 255 52 56 332 294 274 286 270 267 303 335 39 54 5 335 308 284 282 271 254 239 223 240 254 263 267 253 258 275 254 257 267 270 282 300 300 284 267 258 258 260 261 263 265 265 267 274 283 281 283 307 6 9 10 10 13 15 15 18 21 16 10 8 8 7 3 358 354